DECAYED

OBJECT C, 63522 (Decayed)

Orbit data source: Space-Track

You're viewing an Uncataloged Satellite

Recently launched and/or uncataloged satellites may have evolving metadata. Metadata may include but not limited to: Owner, Maufacturer, Bus, Motor, and Mission.

OBJECT C, 63522 was a satellite owned by RVSN RF (CIS) in LEO that was launched on Tue, 08 Apr 2025 UTC launched from the Tyuratam Missile And Space Complex (TTMTR). Unknown objects in Earth's orbit typically refer to objects detected orbiting the Earth but have not yet been identified or cataloged. These objects could be anything from previously untracked satellites, spent rocket stages, debris from satellite collisions, or even natural meteoroids temporarily captured by Earth's gravity. This object's orbit decayed before it could be identified.

Not visible in the next 10 days
Identifier
63522, 2025-072C
Orbit
Decayed
Last TLE update
3 months ago
Origin
Manufacturer
TsSKB-Progress
Mission
Decayed spacecraft
Bus & Motor
Unknown
Mass
Unknown
Launch date (UTC)
2025-04-08 (3 months ago)
Launch vehicle
Unknown
Launch site
Tyuratam Missile And Space Complex (TTMTR)
Object type
Unknown
Shape & HBR
Unknown
Radar Cross Section
RCS unknown

Expand to show TLE details & history

TLE from 3 months ago
0 OBJECT C
1 63522U 25072C   25098.80765435  .08929461  11999-4  31616-2 0  9997
2 63522  51.6448 290.3777 0056083  77.6310  25.1594 16.19975563    63
Epoch: 2025-04-08T19:23Z
TLE epoch observation values (Epoch: 2025-04-08T19:23:01.335Z)
Latitude
49.96583°
Longitude
-87.15363°
Altitude
191.77 km
Speed
7.817 km/s
True Right ascension
02h 43m 37s
True Declination
49° 46' 54"
Sunlit
Object was in daylight at epoch
Visualization orbit readout
Visualization observer readout
Orbital elements
Apogee altitude
257.145 km
Perigee altitude
183.135 km
Semi-major axis
6,598.277 km
Eccentricity
0.00561
Inclination
51.6448°
RAAN
290.3777°
Arg. of periapsis
77.631°
True anomaly
Unknown
Mean anomaly
25.1594°
Eccentric anomaly
Unknown
Mean motion
4.04946 °/min
Orbital period
88.9 mins
BSTAR
0.0031616
Loading maneuver chart data...
Loading SW <> Apogee altitude chart data...
Loading historical data...
Loading historical data...
Loading historical data...
Loading historical data...
Loading historical data...
Loading historical data...
Loading historical data...
Other satellites on launch #72 in the year 2025 (2025-04-08 UTC)

OBJECT C Visibility

Observer location: undefined°, undefined°

This satellite is decayed
Span
Click to sort rows by Start time (UTC) header in descending order
Start Az.
Max El. time (UTC)
Max El. Az.
Max El.
End time (UTC)
End Az.
|